星链-31419 (STARLINK-31419 )

导读 | 星芒AI

STARLINK-31419 是 SpaceX 星链(Starlink)卫星互联网项目中的第 31419 颗卫星。该卫星属于星链计划的低轨卫星群,旨在为全球提供高速、低延迟的互联网服务。它运行在近地轨道,通常高度在 540 至 580 公里之间,采用先进推进系统和激光通信技术,以提高网络效率和减少地面基站依赖。该卫星的发射和运行有助于扩展星链的覆盖范围,特别是在偏远和网络基础设施薄弱地区。

基本信息
目录编号:
59368
目录名称:
STARLINK-31419
国际标识:
2024-060W
轨道中心:
EARTH
卫星名称:
星链-31419
卫星全名:
星链-31419 (STARLINK-31419 )
卫星状态:
在轨 (已飞行580 天)
发射日期:
2024-03-31 UTC
国别 :
美国 (US)
星等 :
--
轨道信息
数据来源 国际轨道数据
星历时间: 2025-10-31T22:45:04+0800
12小时前
查看轨道信息
半长轴: 6861.168km
偏心率: 0.0000257
轨道倾角: 43.007°
近地点辐角 122.058°
升交点赤经 268.702°
平近点角 238.030°
近地点: 482.856km
远地点: 483.21km
周期: 94.266分钟
每日圈数: 15.275861
详细信息
固有亮度:
5
最大亮度:
0.3
卫星平台:
Starlink v2.0 mini
覆盖范围:
全球
运营商:
太空探索技术公司
运营商所在国:
美国
制造商(研发单位):
太空探索技术公司
制造商所在国:
美国
使用方式:
暂无
卫星简介
星链(Starlink)计划是由太空探索技术公司(SpaceX)提出的一个巨型低轨卫星互联网星座项目,计划在2019年至2024年间在太空搭建由约1.2万颗卫星组成的“星链”网络,其中1584颗将部署在地球上空550千米处的近地轨道,并从2020年开始工作。该卫星仍在工作。
2D轨道图
3D轨道图
轨道高度分析图
轨道倾角分析图
轨道综合分析图
查看轨道综合分析图